Terminal Aerodrome Forecast
Issued by NWS Billings, MT

Home | Current Version | Previous Version | Graphics & Text | Print | Product List | Glossary On
Versions: 1 2 3 4 5 6 7 8 9 10 11 12 13 14 15 16 17 18 19 20 21 22 23 24 25 26 27 28 29 30 31 32 33 34 35 36 37
000
FTUS45 KBYZ 041138
TAFMLS
TAF
KMLS 041138Z 0412/0512 01012KT P6SM OVC025
     FM041800 03012KT P6SM SCT035 BKN150
     FM050800 36007KT P6SM SCT010 OVC025=

USA.gov is the U.S. government's official web portal to all federal, state and local government web resources and services.